DELTA 1 DEB, 12290

Orbit data source: Space-Track

DELTA 1 DEB, 12290 is space debris in SSO originally from a launch on Sun, 05 Mar 1978 UTC launched from the Air Force Western Test Range (AFWTR). Debris objects in space refer to the collection of defunct objects orbiting the Earth. Examples of debris include non-operational satellites, rocket bodies, and fragments generated from explosions, collisions, or faulty payload assembly.

Loading next visibility...
Identifier
12290, 1978-026EJ
Orbit
SSO
Country
Flag of USUS
Related business
Manufacturer
Unknown
Mission
Spacecraft
Bus & Motor
Unknown
Mass
Unknown
Launch date (UTC)
1978-03-05 (48 years ago)
Launch vehicle
Unknown
Launch site
Air Force Western Test Range (AFWTR)
Object type
Payload
Rocket body
Debris
Shape & HBR
Unknown shape, 0.1 m
Radar Cross Section
Medium (>0.1 m² and <1 m²)

Expand to show TLE details & history
Last TLE update: 2 days ago

TLE from 2 days ago
0 DELTA 1 DEB
1 12290U 78026EJ  26171.45681744  .00000257  00000-0  15683-3 0  9993
2 12290  99.1296 174.6101 0079481 295.1301  64.1640 14.13542773314255
Epoch: 2026-06-20T10:57Z
TLE epoch observation values (Epoch: 2026-06-20T10:57:49.026Z)
Latitude
-0.00006°
Longitude
101.48466°
Altitude
825.506 km
Speed
7.453 km/s
True Right ascension
11h 38m 26s
True Declination
0° 00' 00"
Sunlit
Object was in daylight at epoch
Visualization orbit readout
Latitude
Unknown
Longitude
Unknown
Altitude
Unknown
Speed
Unknown
Apparent Right ascension
Unknown
Apparent Declination
Unknown
Sunlit
N/A
Visualization observer readout
Local Sidereal Time
06:32:08
Azimuth
Unknown
Elevation
Unknown
Doppler factor
Unknown
Orbital elements
Apogee altitude
901.867 km
Perigee altitude
787.055 km
Semi-major axis
7,222.598 km
Eccentricity
0.00795
Inclination
99.1296°
RAAN
174.6101°
Arg. of periapsis
295.1301°
True anomaly
64.98728°
Mean anomaly
64.164°
Eccentric anomaly
64.57529°
Mean motion
3.53592 °/min
Orbital period
101.81 mins
BSTAR
0.00015683
Loading maneuver chart data...
Computing Atmospheric mass density...
Loading historical data...
Loading historical data...
Loading historical data...
Loading historical data...
Loading historical data...
Loading historical data...
Loading historical data...

Documentation

Showing up to 5 results
|